TimeCDT,TemperatureF,Dew PointF,Humidity,Sea Level PressureIn,VisibilityMPH,Wind Direction,Wind SpeedMPH,Gust SpeedMPH,PrecipitationIn,Events,Conditions,WindDirDegrees,DateUTC
12:15 AM,77.9,72.7,84,29.85,10.0,ESE,8.1,-,N/A,,Mostly Cloudy,110,2013-09-20 05:15:00
12:35 AM,77.9,72.9,84,29.85,10.0,East,6.9,-,N/A,,Overcast,100,2013-09-20 05:35:00
12:55 AM,77.9,72.9,84,29.85,10.0,ESE,9.2,-,N/A,,Overcast,110,2013-09-20 05:55:00
1:15 AM,77.9,72.9,84,29.85,10.0,ESE,8.1,-,N/A,,Overcast,110,2013-09-20 06:15:00
1:35 AM,77.9,73.0,85,29.84,10.0,ESE,6.9,-,N/A,,Overcast,110,2013-09-20 06:35:00
1:55 AM,77.9,73.0,85,29.84,10.0,ESE,6.9,-,N/A,,Overcast,120,2013-09-20 06:55:00
2:15 AM,77.7,73.0,85,29.83,7.0,ESE,5.8,-,N/A,,Overcast,120,2013-09-20 07:15:00
2:35 AM,77.5,73.0,86,29.83,7.0,ESE,6.9,-,N/A,,Overcast,110,2013-09-20 07:35:00
2:55 AM,77.2,72.9,86,29.82,7.0,SE,5.8,-,N/A,,Overcast,130,2013-09-20 07:55:00
3:15 AM,77.0,72.9,87,29.82,7.0,SE,6.9,-,N/A,,Overcast,130,2013-09-20 08:15:00
3:35 AM,77.0,72.9,87,29.81,7.0,SE,8.1,-,N/A,,Overcast,130,2013-09-20 08:35:00
3:55 AM,77.0,72.9,87,29.80,7.0,SE,6.9,-,N/A,,Overcast,140,2013-09-20 08:55:00
4:15 AM,77.0,72.9,87,29.80,7.0,SE,6.9,-,N/A,,Overcast,140,2013-09-20 09:15:00
4:35 AM,77.0,72.9,87,29.80,7.0,SSE,8.1,-,N/A,,Overcast,150,2013-09-20 09:35:00
4:55 AM,77.0,72.9,87,29.80,7.0,SSE,5.8,-,N/A,,Overcast,150,2013-09-20 09:55:00
5:15 AM,77.2,72.7,86,29.79,7.0,SSE,5.8,-,N/A,,Mostly Cloudy,150,2013-09-20 10:15:00
5:35 AM,77.0,72.7,86,29.79,7.0,SE,5.8,-,N/A,,Mostly Cloudy,140,2013-09-20 10:35:00
5:55 AM,77.0,72.7,86,29.79,7.0,SE,5.8,-,N/A,,Overcast,130,2013-09-20 10:55:00
6:15 AM,77.2,72.9,86,29.79,7.0,SE,6.9,-,N/A,,Overcast,130,2013-09-20 11:15:00
6:35 AM,77.2,72.9,86,29.79,7.0,SE,5.8,-,N/A,,Overcast,140,2013-09-20 11:35:00
6:55 AM,77.2,72.9,86,29.79,7.0,SE,6.9,-,N/A,,Overcast,140,2013-09-20 11:55:00
7:15 AM,77.4,73.0,86,29.79,5.0,SE,6.9,-,N/A,,Overcast,140,2013-09-20 12:15:00
7:35 AM,77.0,72.7,86,29.79,5.0,SE,4.6,-,N/A,,Overcast,140,2013-09-20 12:35:00
7:55 AM,77.2,72.7,86,29.80,5.0,SE,8.1,-,N/A,,Overcast,140,2013-09-20 12:55:00
8:15 AM,77.4,72.9,86,29.80,5.0,SE,8.1,-,N/A,,Haze,130,2013-09-20 13:15:00
8:35 AM,77.7,72.9,85,29.81,7.0,SSE,6.9,-,N/A,,Overcast,150,2013-09-20 13:35:00
8:55 AM,78.3,72.7,83,29.81,7.0,SSE,9.2,-,N/A,,Overcast,150,2013-09-20 13:55:00
9:15 AM,78.8,72.5,81,29.81,7.0,SSE,6.9,-,N/A,,Overcast,150,2013-09-20 14:15:00
9:35 AM,78.8,72.5,81,29.81,7.0,SSE,8.1,-,N/A,,Overcast,160,2013-09-20 14:35:00
9:55 AM,79.5,72.7,79,29.82,10.0,SSE,5.8,-,N/A,,Overcast,160,2013-09-20 14:55:00
10:15 AM,79.9,72.9,79,29.82,10.0,SE,8.1,-,N/A,,Overcast,140,2013-09-20 15:15:00
10:35 AM,81.3,72.9,75,29.82,10.0,SE,9.2,-,N/A,,Scattered Clouds,140,2013-09-20 15:35:00
10:55 AM,82.2,72.7,73,29.81,10.0,SSE,11.5,16.1,N/A,,Mostly Cloudy,150,2013-09-20 15:55:00
11:15 AM,83.7,72.0,68,29.81,10.0,SSE,10.4,-,N/A,,Mostly Cloudy,150,2013-09-20 16:15:00
11:35 AM,83.3,72.0,68,29.81,10.0,South,6.9,-,N/A,,Overcast,170,2013-09-20 16:35:00
11:55 AM,82.4,72.7,72,29.81,10.0,SSE,5.8,-,N/A,,Overcast,150,2013-09-20 16:55:00
12:15 PM,82.4,73.4,74,29.80,7.0,South,6.9,-,N/A,Rain,Light Rain,170,2013-09-20 17:15:00
12:35 PM,83.3,73.9,73,29.80,10.0,SSE,8.1,-,N/A,,Mostly Cloudy,160,2013-09-20 17:35:00
12:55 PM,84.6,73.0,68,29.80,10.0,SSE,8.1,-,N/A,,Mostly Cloudy,160,2013-09-20 17:55:00
1:15 PM,85.6,71.2,62,29.79,10.0,SSE,10.4,16.1,N/A,,Overcast,160,2013-09-20 18:15:00
1:35 PM,86.0,70.5,60,29.78,10.0,South,11.5,-,N/A,,Overcast,170,2013-09-20 18:35:00
1:55 PM,86.9,70.2,57,29.77,10.0,SSE,10.4,-,N/A,,Overcast,150,2013-09-20 18:55:00
2:15 PM,87.4,69.8,56,29.76,10.0,South,8.1,-,N/A,,Overcast,180,2013-09-20 19:15:00
2:35 PM,87.1,69.8,56,29.75,10.0,SSE,6.9,-,N/A,,Overcast,160,2013-09-20 19:35:00
2:55 PM,87.8,69.4,54,29.74,10.0,SSE,8.1,-,N/A,,Overcast,160,2013-09-20 19:55:00
3:15 PM,88.5,68.9,52,29.74,10.0,SSE,6.9,-,N/A,,Overcast,160,2013-09-20 20:15:00
3:35 PM,88.2,68.7,52,29.73,10.0,South,6.9,-,N/A,,Overcast,190,2013-09-20 20:35:00
3:55 PM,88.7,68.5,51,29.73,10.0,South,4.6,-,N/A,,Overcast,170,2013-09-20 20:55:00
4:15 PM,89.2,68.4,50,29.73,10.0,SSW,5.8,-,N/A,,Overcast,200,2013-09-20 21:15:00
4:35 PM,88.9,68.9,51,29.73,10.0,South,4.6,-,N/A,,Overcast,190,2013-09-20 21:35:00
4:55 PM,89.2,68.2,50,29.72,10.0,Calm,Calm,-,N/A,,Overcast,0,2013-09-20 21:55:00
5:15 PM,90.0,68.2,49,29.72,10.0,Calm,Calm,-,N/A,,Scattered Clouds,0,2013-09-20 22:15:00
5:35 PM,89.1,68.0,50,29.71,10.0,Calm,Calm,-,N/A,,Mostly Cloudy,0,2013-09-20 22:35:00
5:55 PM,89.2,68.4,50,29.71,10.0,East,3.5,-,N/A,,Mostly Cloudy,90,2013-09-20 22:55:00
6:15 PM,88.5,69.6,53,29.71,10.0,Calm,Calm,-,N/A,,Overcast,0,2013-09-20 23:15:00
6:35 PM,87.4,70.9,58,29.72,10.0,Calm,Calm,-,N/A,Thunderstorm,Overcast,0,2013-09-20 23:35:00
6:55 PM,86.5,71.2,60,29.73,10.0,Calm,Calm,-,N/A,,Overcast,0,2013-09-20 23:55:00
7:15 PM,82.2,71.8,71,29.75,5.0,NNW,13.8,-,0.02,Rain-Thunderstorm,Heavy Thunderstorms and Rain,340,2013-09-21 00:15:00
7:35 PM,77.2,71.8,83,29.74,4.0,NNW,15.0,24.2,0.21,Rain-Thunderstorm,Rain,330,2013-09-21 00:35:00
7:55 PM,76.3,71.2,84,29.75,10.0,North,12.7,-,0.22,Thunderstorm,Thunderstorm,350,2013-09-21 00:55:00
8:15 PM,76.3,71.4,85,29.76,10.0,NNW,11.5,19.6,N/A,Thunderstorm,Thunderstorm,340,2013-09-21 01:15:00
8:35 PM,76.3,71.6,85,29.77,10.0,North,13.8,-,N/A,Rain-Thunderstorm,Light Thunderstorms and Rain,350,2013-09-21 01:35:00
8:55 PM,76.1,71.6,86,29.78,10.0,North,12.7,17.3,N/A,Rain-Thunderstorm,Light Thunderstorms and Rain,10,2013-09-21 01:55:00
9:15 PM,75.9,71.6,86,29.79,10.0,North,12.7,-,0.01,Rain-Thunderstorm,Rain,10,2013-09-21 02:15:00
9:35 PM,75.6,71.4,87,29.79,5.0,North,9.2,-,0.07,Rain-Thunderstorm,Heavy Thunderstorms and Rain,360,2013-09-21 02:35:00
9:55 PM,75.2,71.1,87,29.79,7.0,North,13.8,-,0.10,Rain,Rain,360,2013-09-21 02:55:00
10:15 PM,74.8,70.9,87,29.79,10.0,North,9.2,-,0.02,Rain-Thunderstorm,Light Thunderstorms and Rain,350,2013-09-21 03:15:00
10:35 PM,75.0,70.9,87,29.80,10.0,North,9.2,-,0.02,Thunderstorm,Overcast,360,2013-09-21 03:35:00
10:55 PM,75.0,70.7,86,29.80,10.0,NNE,8.1,-,0.02,Thunderstorm,Overcast,20,2013-09-21 03:55:00
11:15 PM,75.0,70.9,87,29.81,10.0,NNE,6.9,-,N/A,,Overcast,20,2013-09-21 04:15:00
11:35 PM,75.2,70.9,86,29.81,10.0,North,6.9,-,N/A,,Overcast,10,2013-09-21 04:35:00
11:55 PM,75.2,70.9,86,29.82,10.0,North,9.2,-,N/A,,Overcast,10,2013-09-21 04:55:00